Weather Roundup
Issued by NWS Chicago, IL

Home | Current Version | Previous Version | Graphics & Text | Print | Product List | Glossary On
Versions: 1 2 3 4 5 6 7 8 9 10 11 12 13 14 15 16 17 18 19 20 21 22 23 24 25 26 27 28 29 30 31 32 33 34 35 36 37 38 39 40 41 42 43 44 45 46 47 48 49 50
000
NZUS59 KLOT 011508
HRRLOT

CHICAGO AREA WEATHER ROUNDUP
NATIONAL WEATHER SERVICE CHICAGO/ROMEOVILLE IL
1000 AM CDT TUE SEP 01 2015

NOTE: "FAIR" INDICATES FEW OR NO CLOUDS BELOW 12,000 FEET WITH NO
SIGNIFICANT WEATHER AND/OR OBSTRUCTIONS TO VISIBILITY.

* THESE STATIONS ARE NOT UNDER NWS QUALITY CONTROL. THEY ALSO MAY NOT
  REPORT WEATHER SUCH AS PRECIPITATION OR FOG.

ILZ005-006-012>014-019>023-011600-
NORTHEAST ILLINOIS

CITY           SKY/WX    TMP DP  RH WIND       PRES   REMARKS
OHARE          MOSUNNY   79  72  79 VRB3      30.05S HX  82
MIDWAY         MOSUNNY   82  71  69 SW7       30.05F HX  86
AURORA         MOSUNNY   79  72  79 S6        30.07S HAZE    HX  82
LANSING*       SUNNY     79  71  77 SW6       30.08S HX  82
JOLIET*        SUNNY     81  74  78 S3        30.07S HX  86
WAUKEGAN       SUNNY     79  72  79 S7        30.04F HX  82
DUPAGE AIRPORT PTSUNNY   79  71  76 SW6       30.06S HX  82
WHEELING       SUNNY     81  71  71 VRB6      30.06S HX  85
KANKAKEE*      PTSUNNY   78  73  83 S8        30.10R HX  80
MORRIS*        SUNNY     79  73  82 CALM      30.06S HX  82
LEWIS AIRPORT* MOSUNNY   79  71  77 W5        30.07S HX  81
NORTHERLY IS     N/A     80  69  69 S3          N/A  HX  83
$$

WIZ051-052-058>065-066-070>072-011600-
SOUTHEAST WISCONSIN

CITY           SKY/WX    TMP DP  RH WIND       PRES   REMARKS
MILWAUKEE      MOSUNNY   80  71  74 SW8       30.03S HX  84
KENOSHA*       SUNNY     81  73  76 SW6       30.04F HX  86
RACINE*        MOSUNNY   81  71  71 SW6       30.05S HX  85
BURLINGTON     SUNNY     78  72  80 S6        30.04S HX  81
WAUKESHA       SUNNY     75  70  83 SW3       30.04F
WEST BEND      SUNNY     79  70  73 CALM      30.02F HX  81
$$

INZ001>003-010>013-019-020-011600-
NORTHWEST INDIANA

CITY           SKY/WX    TMP DP  RH WIND       PRES   REMARKS
GARY*          MOSUNNY   81  70  69 SW6       30.08R HX  84
MICHIGAN CITY* NOT AVBL
RENSSELAER*    NOT AVBL
VALPARAISO     SUNNY     79  71  76 S6        30.09F HX  82
$$

LMZ740>746-011600-
SOUTHERN LAKE MICHIGAN

STATION/POSITION TIME  SKY/WX   TEMP WIND        PRES    VSBY
                                AIR  DIR/SP/G
                 (UTC)          (F)  (DEG/KT/KT) (MB)    (MI)
HARRISON CRIB    1400            73  190/ 10/ 11   N/A
BURNHAM HARBOR   1500            81  190/  4/  8   N/A
CALUMET HARBOR   1400            76  190/  5/  7   N/A
BURNS HARBOR     1400            75  190/  8/ 11 1018.6S
MICHIGAN CITY    1400            75  160/  8/  9   N/A
$$

ABBREVIATIONS USED IN REMARKS
   TC - TEMPERATURE IN CELSIUS
  WCI - WIND CHILL INDEX
   HX - HEAT INDEX
  VSB - VISIBILITY
$$



USA.gov is the U.S. government's official web portal to all federal, state and local government web resources and services.